This is the latest recevied weather packets stored in our database for station/object KC4GS-13. If no packets are shown the sender has not sent any weather packets the latest 10 day(s).
| Time | Temp. | Humidity | Pressure | Rain* | Wind** | Luminosity | Snow |
|---|---|---|---|---|---|---|---|
| 1777841479 | 25° C | 30% | 1017.9 hPa | 0 mm | - | 538 W/m² | - |
| 1777841176 | 23.89° C | 30% | 1018.1 hPa | 0 mm | - | 538 W/m² | - |
| 1777840874 | 24.44° C | 31% | 1018 hPa | 0 mm | - | 484 W/m² | - |
| 1777840570 | 25° C | 32% | 1018.1 hPa | 0 mm | - | 563 W/m² | - |
| 1777840268 | 23.89° C | 33% | 1018.1 hPa | 0 mm | - | 549 W/m² | - |
| 1777839965 | 23.89° C | 33% | 1018.3 hPa | 0 mm | - | 542 W/m² | - |
| 1777839663 | 23.89° C | 32% | 1018.2 hPa | 0 mm | - | 616 W/m² | - |
| 1777839361 | 23.89° C | 33% | 1018.3 hPa | 0 mm | - | 641 W/m² | - |
| 1777839058 | 23.89° C | 30% | 1018.1 hPa | 0 mm | - | 603 W/m² | - |
| 1777838754 | 23.89° C | 31% | 1018.3 hPa | 0 mm | - | 589 W/m² | - |
| 1777838451 | 23.89° C | 34% | 1018.6 hPa | 0 mm | - | 654 W/m² | - |
| 1777838148 | 23.89° C | 33% | 1018.4 hPa | 0 mm | - | 666 W/m² | - |
| 1777837844 | 24.44° C | 38% | 1018.2 hPa | 0 mm | - | 647 W/m² | - |
| 1777837542 | 24.44° C | 34% | 1018.7 hPa | 0 mm | - | 610 W/m² | - |
| 1777837241 | 24.44° C | 35% | 1018.8 hPa | 0 mm | - | 695 W/m² | - |
| 1777836939 | 23.89° C | 36% | 1018.7 hPa | 0 mm | - | 728 W/m² | - |
| 1777836633 | 23.33° C | 37% | 1018.9 hPa | 0 mm | - | 693 W/m² | - |
| 1777836330 | 23.33° C | 36% | 1019.1 hPa | 0 mm | - | 694 W/m² | - |
| 1777836026 | 22.78° C | 37% | 1019.2 hPa | 0 mm | - | 739 W/m² | - |
| 1777835723 | 22.22° C | 37% | 1019.3 hPa | 0 mm | - | 753 W/m² | - |
| 1777835419 | 22.22° C | 39% | 1019.4 hPa | 0 mm | - | 727 W/m² | - |
| 1777835116 | 22.78° C | 38% | 1019.3 hPa | 0 mm | - | 701 W/m² | - |
| 1777834814 | 22.78° C | 41% | 1019.6 hPa | 0 mm | - | 717 W/m² | - |
| 1777834509 | 22.78° C | 39% | 1019.5 hPa | 0 mm | - | 717 W/m² | - |
| 1777834204 | 22.78° C | 37% | 1019.7 hPa | 0 mm | - | 639 W/m² | - |
* Rain latest hour (hover to see other rain measurements)
** Current wind speed in m/s (hover to see current wind gust speed)